Regional Weather Roundup
Issued by NWS

Home | Current Version | Previous Version | Text Only | Print | Product List | Glossary Off
Versions: 1 2 3 4 5 6 7 8 9 10 11 12 13 14 15 16 17 18 19 20 21 22 23 24 25 26 27 28 29 30 31 32 33 34 35 36 37 38 39 40 41 42 43 44 45 46 47 48 49 50

000
ASUS45 KABQ 192210
RWRNM
WEATHER ROUNDUP FOR NEW MEXICO
NATIONAL WEATHER SERVICE ALBUQUERQUE NM
400 PM MDT SUN OCT 19 2014

NOTE: "FAIR" MEANS FEW OR NO CLOUDS BELOW 12,000 FEET AGL WITH NO
       SIGNIFICANT WEATHER OR OBSTRUCTIONS TO VISION.

      THIS PRODUCT IS RELEASED AS TWO VERSIONS.  ONE VERSION NEAR
      THE TOP OF THE HOUR CONTAINING PRELIMINARY DATA FROM ALBUQUERQUE
      AND OTHER STATIONS.  A FINAL VERSION WITH ADDITIONAL DATA IS
      ISSUED ABOUT 10 MINUTES AFTER THE HOUR.

NMZ501-503-504-510>518-192300-
NORTHWEST PLATEAU/NORTHCENTRAL MOUNTAINS

CITY           SKY/WX    TMP DP  RH WIND       PRES   REMARKS
FARMINGTON     MOSUNNY   72  41  32 VRB3      30.05F
LOS ALAMOS     PTSUNNY   61  39  44 SW6       30.20F
SANTA FE       PTSUNNY   68  42  38 W15       30.14S
TAOS           PTSUNNY   64  34  32 E12G17    30.19R
ANGEL FIRE     DRIZZLE   51  38  60 NW17G23   30.28R

$$
NMZ402-403-502-505>509-192300-
WESTCENTRAL MOUNTAINS/SOUTHWEST MOUNTAINS

CITY           SKY/WX    TMP DP  RH WIND       PRES   REMARKS
GALLUP         LGT RAIN  50  44  80 E17       30.20F
GRANTS         PTSUNNY   63  36  36 CALM      30.20R
SILVER CITY    MOSUNNY   66  48  52 E14G21    30.08F

$$
NMZ407-409-411-412-192300-
SOUTHERN DESERTS

CITY           SKY/WX    TMP DP  RH WIND       PRES   REMARKS
LORDSBURG      FAIR      73  50  43 MISG      29.97F
DEMING         SUNNY     72  50  45 NE29G37   29.99F
LAS CRUCES     MOSUNNY   71  49  45 N12       30.03F
HOLLOMAN AFB   MOSUNNY   72  50  46 N9        30.03F
T OR C         CLOUDY    64  51  62 NE10      30.09F

$$
NMZ519>523-192300-
CENTRAL VALLEYS/CENTRAL HIGHLANDS

CITY           SKY/WX    TMP DP  RH WIND       PRES   REMARKS
ALBUQUERQUE    PTSUNNY   63  45  51 S17       30.17R
DOUBLE EAGLE   PTSUNNY   63  43  48 SE14      30.18R
MORIARTY ARPT  FAIR      66  40  38 W18       30.16S
CLINES CORNERS MOSUNNY   64  43  46 W16       30.17R
BELEN          CLOUDY    55  50  81 SW13      30.14F
SOCORRO        FAIR      62  49  62 NW10      30.12F

$$
NMZ524>526-539-540-192300-
SOUTHCENTRAL MOUNTAINS

CITY           SKY/WX    TMP DP  RH WIND       PRES   REMARKS
RUIDOSO        NOT AVBL

$$
NMZ527>531-192300-
NORTHEAST HIGHLANDS/NORTHEAST PLAINS

CITY           SKY/WX    TMP DP  RH WIND       PRES   REMARKS
LAS VEGAS      LGT RAIN  54  44  69 W6        30.19R
RATON          CLOUDY    69  35  28 NW6       30.11F
CLAYTON        SUNNY     74  46  36 S14       30.05S

$$
NMZ532>537-192300-
EASTCENTRAL PLAINS

CITY           SKY/WX    TMP DP  RH WIND       PRES   REMARKS
TUCUMCARI      PTSUNNY   76  47  35 SW18      30.02S
CANNON AFB     CLOUDY    72  54  53 SW13G18   30.07F
CLOVIS AIRPORT CLOUDY    70  54  56 S10       30.10F

$$
NMZ028-029-538-192300-
SOUTHEAST PLAINS

CITY           SKY/WX    TMP DP  RH WIND       PRES   REMARKS
ROSWELL        CLOUDY    69  53  56 SW5       30.06S
CARLSBAD       MOSUNNY   73  57  57 SE7       30.02F
HOBBS          MOSUNNY   72  57  60 E5        30.05F


$$



USA.gov is the U.S. government's official web portal to all federal, state and local government web resources and services.